| time (UTC) | temp F | wind direction | speed MPH | gust MPH | rain 1hr in | rain 24hr in | rain mn in | humidity % | barometer mb |
| 20260502151621 | 63 | 360 | 6.0 | 12.0 | 0.00 | 0.03 | 0.01 | 75 | 1021.5 |
| 20260502123051 | 54 | 37 | 7.0 | 13.0 | 0.00 | 0.02 | 0.00 | 93 | 1019.3 |
| 20260502121546 | 53 | 27 | 6.0 | 11.0 | 0.00 | 0.02 | 0.00 | 93 | 1019.2 |
| 20260502114554 | 53 | 16 | 7.0 | 13.0 | 0.00 | 0.03 | 0.00 | 93 | 1018.7 |
| 20260502113051 | 53 | 17 | 3.0 | 10.0 | 0.00 | 0.03 | 0.00 | 93 | 1018.4 |
| 20260502111548 | 53 | 360 | 6.0 | 11.0 | 0.00 | 0.03 | 0.00 | 93 | 1018.4 |
| 20260502110047 | 52 | 28 | 2.0 | 8.0 | 0.00 | 0.03 | 0.00 | 93 | 1018.3 |
| 20260502104545 | 52 | 0 | 0.0 | 6.0 | 0.00 | 0.03 | 0.00 | 93 | 1018.1 |
| 20260502103102 | 53 | 0 | 2.0 | 10.0 | 0.00 | 0.03 | 0.00 | 93 | 1018.1 |
| 20260502101559 | 53 | 0 | 4.0 | 10.0 | 0.00 | 0.03 | 0.00 | 93 | 1018.1 |
| 20260502100113 | 53 | 34 | 3.0 | 11.0 | 0.00 | 0.03 | 0.00 | 93 | 1017.9 |
| 20260502070051 | 53 | 15 | 2.0 | 8.0 | 0.00 | 0.04 | 0.00 | 94 | 1016.8 |
| 20260502064557 | 52 | 0 | 2.0 | 5.0 | 0.00 | 0.04 | 0.00 | 93 | 1017.0 |
| 20260502063052 | 52 | 0 | 0.0 | 7.0 | 0.00 | 0.04 | 0.00 | 93 | 1016.8 |
| 20260502061600 | 53 | 27 | 2.0 | 5.0 | 0.00 | 0.04 | 0.00 | 93 | 1017.1 |
| 20260502060050 | 53 | 26 | 2.0 | 7.0 | 0.00 | 0.04 | 0.00 | 93 | 1017.2 |
| 20260502054548 | 53 | 0 | 0.0 | 4.0 | 0.00 | 0.05 | 0.00 | 92 | 1017.2 |
| 20260502053052 | 53 | 0 | 0.0 | 4.0 | 0.00 | 0.05 | 0.00 | 92 | 1017.2 |
| 20260502051548 | 53 | 72 | 0.0 | 4.0 | 0.00 | 0.05 | 0.00 | 92 | 1017.3 |
| 20260502050045 | 53 | 0 | 1.0 | 7.0 | 0.00 | 0.05 | 0.00 | 91 | 1017.0 |
| 20260502044542 | 53 | 122 | 0.0 | 13.0 | 0.00 | 0.07 | 0.05 | 91 | 1017.1 |
| 20260502043059 | 53 | 64 | 1.0 | 9.0 | 0.00 | 0.07 | 0.05 | 92 | 1017.1 |
| 20260502041553 | 53 | 61 | 2.0 | 9.0 | 0.00 | 0.07 | 0.05 | 92 | 1017.4 |
| 20260502040058 | 54 | 63 | 3.0 | 9.0 | 0.00 | 0.07 | 0.05 | 93 | 1017.3 |
| 20260502034547 | 54 | 27 | 3.0 | 10.0 | 0.00 | 0.10 | 0.05 | 93 | 1017.3 |
| 20260502033048 | 54 | 52 | 3.0 | 13.0 | 0.01 | 0.10 | 0.05 | 93 | 1016.9 |
| 20260502031548 | 54 | 15 | 2.0 | 11.0 | 0.01 | 0.10 | 0.05 | 94 | 1016.5 |
| 20260502024602 | 55 | 11 | 3.0 | 10.0 | 0.01 | 0.12 | 0.05 | 94 | 1015.8 |
| 20260502023045 | 55 | 39 | 4.0 | 14.0 | 0.00 | 0.11 | 0.04 | 94 | 1016.0 |
| 20260502021600 | 55 | 17 | 3.0 | 8.0 | 0.00 | 0.11 | 0.04 | 94 | 1015.9 |
| 20260502020049 | 55 | 49 | 3.0 | 14.0 | 0.00 | 0.11 | 0.04 | 94 | 1015.5 |
| 20260502014549 | 55 | 39 | 3.0 | 13.0 | 0.00 | 0.11 | 0.04 | 94 | 1015.0 |
| 20260502013047 | 55 | 36 | 6.0 | 11.0 | 0.00 | 0.11 | 0.04 | 94 | 1014.5 |
| 20260502011548 | 55 | 34 | 4.0 | 10.0 | 0.00 | 0.11 | 0.04 | 94 | 1014.7 |
| 20260502010108 | 55 | 41 | 8.0 | 16.0 | 0.00 | 0.11 | 0.04 | 95 | 1014.9 |
| 20260502004550 | 55 | 24 | 5.0 | 12.0 | 0.00 | 0.11 | 0.04 | 94 | 1014.5 |
| 20260502003049 | 55 | 13 | 2.0 | 5.0 | 0.00 | 0.11 | 0.04 | 94 | 1014.5 |
| 20260502001548 | 55 | 39 | 1.0 | 6.0 | 0.00 | 0.11 | 0.04 | 94 | 1014.4 |
| 20260502000049 | 55 | 86 | 2.0 | 12.0 | 0.00 | 0.11 | 0.04 | 94 | 1013.6 |
| 20260501234556 | 55 | 53 | 2.0 | 8.0 | 0.00 | 0.11 | 0.04 | 94 | 1013.7 |
| 20260501233054 | 55 | 57 | 4.0 | 13.0 | 0.00 | 0.11 | 0.04 | 94 | 1012.4 |
| 20260501231548 | 55 | 42 | 3.0 | 12.0 | 0.00 | 0.11 | 0.04 | 94 | 1012.2 |
| 20260501230058 | 55 | 44 | 3.0 | 15.0 | 0.00 | 0.11 | 0.04 | 94 | 1012.3 |
| 20260501224548 | 56 | 58 | 7.0 | 18.0 | 0.00 | 0.11 | 0.04 | 93 | 1011.6 |
| 20260501223054 | 56 | 0 | 4.0 | 13.0 | 0.00 | 0.11 | 0.04 | 93 | 1013.5 |
| 20260501221552 | 57 | 74 | 2.0 | 11.0 | 0.00 | 0.11 | 0.04 | 94 | 1013.1 |
| 20260501220056 | 58 | 132 | 3.0 | 10.0 | 0.00 | 0.11 | 0.04 | 94 | 1013.4 |
| 20260501214554 | 58 | 33 | 4.0 | 14.0 | 0.00 | 0.11 | 0.04 | 94 | 1012.9 |
| 20260501213051 | 58 | 0 | 3.0 | 12.0 | 0.00 | 0.11 | 0.04 | 94 | 1011.7 |
| 20260501211557 | 58 | 60 | 2.0 | 11.0 | 0.00 | 0.11 | 0.04 | 94 | 1012.3 |
| 20260501210049 | 58 | 67 | 3.0 | 9.0 | 0.00 | 0.11 | 0.04 | 93 | 1012.4 |
| 20260501204616 | 58 | 27 | 0.0 | 6.0 | 0.00 | 0.11 | 0.04 | 93 | 1012.3 |
| 20260501203047 | 59 | 96 | 1.0 | 9.0 | 0.00 | 0.11 | 0.04 | 92 | 1012.5 |
| 20260501201549 | 59 | 50 | 6.0 | 13.0 | 0.00 | 0.11 | 0.04 | 92 | 1012.0 |
| 20260501200049 | 59 | 38 | 1.0 | 9.0 | 0.00 | 0.11 | 0.04 | 92 | 1012.5 |
| 20260501194558 | 59 | 103 | 2.0 | 12.0 | 0.00 | 0.11 | 0.04 | 93 | 1011.2 |
| 20260501193047 | 59 | 0 | 2.0 | 11.0 | 0.00 | 0.11 | 0.04 | 93 | 1011.9 |
| 20260501191552 | 59 | 9 | 5.0 | 18.0 | 0.00 | 0.11 | 0.04 | 93 | 1010.5 |
| 20260501190048 | 59 | 87 | 7.0 | 25.0 | 0.00 | 0.11 | 0.04 | 94 | 1010.4 |
| 20260501184550 | 59 | 57 | 5.0 | 21.0 | 0.00 | 0.12 | 0.04 | 94 | 1009.5 |
| 20260501183053 | 59 | 117 | 10.0 | 20.0 | 0.00 | 0.12 | 0.04 | 94 | 1010.0 |
| 20260501181552 | 59 | 50 | 3.0 | 15.0 | 0.01 | 0.12 | 0.04 | 95 | 1010.9 |
| 20260501180048 | 59 | 59 | 6.0 | 15.0 | 0.01 | 0.12 | 0.04 | 95 | 1012.0 |
| 20260501174547 | 59 | 55 | 6.0 | 15.0 | 0.01 | 0.12 | 0.04 | 95 | 1011.8 |
| 20260501173052 | 59 | 39 | 5.0 | 15.0 | 0.01 | 0.12 | 0.04 | 96 | 1012.3 |
| 20260501171550 | 59 | 75 | 6.0 | 17.0 | 0.00 | 0.11 | 0.03 | 96 | 1012.7 |
| 20260501170049 | 59 | 52 | 3.0 | 10.0 | 0.00 | 0.11 | 0.03 | 96 | 1013.5 |
| 20260501164553 | 59 | 74 | 4.0 | 12.0 | 0.00 | 0.11 | 0.03 | 96 | 1014.0 |
| 20260501163048 | 59 | 109 | 3.0 | 10.0 | 0.00 | 0.11 | 0.03 | 96 | 1014.3 |
| 20260501161550 | 59 | 55 | 4.0 | 10.0 | 0.00 | 0.11 | 0.03 | 96 | 1014.6 |
| 20260501160058 | 59 | 28 | 1.0 | 9.0 | 0.00 | 0.11 | 0.03 | 96 | 1014.2 |
| 20260501154550 | 59 | 55 | 1.0 | 10.0 | 0.00 | 0.11 | 0.03 | 96 | 1013.8 |